Weather History for Ann Arbor, MI

Change the Weather History Date:

Friday, July 5, 2013

  Actual Average Record
Temperature  
Mean Temperature 75 °F -  
Max Temperature 82 °F 79 °F 91 °F (1999)
Min Temperature 69 °F 55 °F 42 °F (2008)
Cooling Degree Days 10    
Growing Degree Days 25 (Base 50)    
Moisture  
Dew Point 67 °F    
Average Humidity 81    
Maximum Humidity 94    
Minimum Humidity 52    
Precipitation  
Precipitation 0.03 in - - ()
Sea Level Pressure  
Sea Level Pressure 30.09 in    
Wind  
Wind Speed 3 mph (SW)    
Max Wind Speed 8 mph    
Max Gust Speed -    
Visibility 7 miles    
Events Rain    
Averages and records for this station are not official NWS values.
T = Trace of Precipitation, MM = Missing Value Source: NWS Daily Summary

Daily Weather History Graph

Daily Weather History Graph

Search for Another Location

Airport:

Trip Planner

Search our weather history database for the weather conditions in past years. The results will help you decide how hot, cold, wet, or windy it might be!

Date:

Astronomy

Jul. 05, 2013 Rise Set
Actual Time 6:04 AM EDT 9:14 PM EDT
Civil Twilight 5:30 AM EDT 9:48 PM EDT
Nautical Twilight 4:46 AM EDT 10:32 PM EDT
Astronomical Twilight 3:53 AM EDT 11:24 PM EDT
Moon 4:04 AM EDT (7/5) 7:07 PM EDT (7/5)
Length of Visible Light 16h 17m
Length of Day
15h 09m
Waning Crescent, 6% of the Moon is Illuminated
Jul 5
Waning Crescent
Jul 8
New
Jul 15
First Quarter
Jul 22
Full
Jul 29
Last Quarter

Hourly Weather History & Observations

Time (EDT) Temp. Heat Index Dew Point Humidity Pressure Visibility Wind Dir Wind Speed Gust Speed Precip Events Conditions
12:53 AM 71.1 °F - 66.9 °F 87% 30.10 in 6.0 mi South 3.5 mph - N/A   Overcast
1:53 AM 70.0 °F - 68.0 °F 93% 30.09 in 5.0 mi Calm Calm - N/A   Overcast
2:53 AM 70.0 °F - 68.0 °F 93% 30.08 in 4.0 mi South 4.6 mph - N/A   Overcast
3:53 AM 70.0 °F - 66.9 °F 90% 30.07 in 5.0 mi Calm Calm - N/A   Overcast
4:53 AM 69.1 °F - 66.9 °F 93% 30.06 in 5.0 mi Calm Calm - N/A   Mostly Cloudy
5:53 AM 69.1 °F - 66.9 °F 93% 30.07 in 3.0 mi Calm Calm - N/A   Overcast
6:24 AM 69.8 °F - 68.0 °F 94% 30.10 in 1.8 mi Calm Calm - 0.01 in Rain Rain
6:53 AM 69.1 °F - 66.9 °F 93% 30.08 in 1.8 mi Calm Calm - 0.03 in   Overcast
7:20 AM 69.8 °F - 68.0 °F 94% 30.09 in 1.2 mi Calm Calm - N/A   Overcast
7:42 AM 69.8 °F - 68.0 °F 94% 30.09 in 2.0 mi Calm Calm - N/A   Mostly Cloudy
7:53 AM 70.0 °F - 68.0 °F 93% 30.08 in 2.5 mi Calm Calm - N/A   Mostly Cloudy
8:00 AM 69.8 °F - 68.0 °F 94% 30.09 in 3.0 mi Calm Calm - N/A   Mostly Cloudy
8:53 AM 72.0 °F - 68.0 °F 87% 30.09 in 6.0 mi NW 3.5 mph - N/A   Partly Cloudy
9:25 AM 71.6 °F - 68.0 °F 88% 30.12 in 6.0 mi WNW 4.6 mph - N/A   Overcast
9:53 AM 73.0 °F - 69.1 °F 87% 30.12 in 6.0 mi WNW 6.9 mph - N/A   Mostly Cloudy
10:09 AM 75.2 °F - 69.8 °F 83% 30.12 in 6.0 mi NW 5.8 mph - N/A   Haze
10:17 AM 75.2 °F - 69.8 °F 83% 30.12 in 7.0 mi NW 6.9 mph - N/A   Mostly Cloudy
10:30 AM 75.2 °F - 69.8 °F 83% 30.12 in 7.0 mi WNW 8.1 mph - N/A   Mostly Cloudy
10:45 AM 75.2 °F - 68.0 °F 78% 30.12 in 8.0 mi West 6.9 mph - N/A   Mostly Cloudy
10:53 AM 75.9 °F - 68.0 °F 76% 30.11 in 9.0 mi West 8.1 mph - N/A   Mostly Cloudy
11:53 AM 78.1 °F - 64.9 °F 64% 30.11 in 10.0 mi Variable 3.5 mph - N/A   Mostly Cloudy
12:53 PM 81.0 °F 81.9 °F 62.1 °F 52% 30.10 in 10.0 mi Calm Calm - N/A   Mostly Cloudy
1:53 PM 79.0 °F - 64.0 °F 60% 30.10 in 10.0 mi South 4.6 mph - N/A   Overcast
2:53 PM 81.0 °F 83.3 °F 66.9 °F 62% 30.09 in 10.0 mi Calm Calm - N/A   Partly Cloudy
3:53 PM 78.1 °F - 68.0 °F 71% 30.09 in 10.0 mi ENE 8.1 mph - N/A   Mostly Cloudy
4:53 PM 79.0 °F - 66.9 °F 66% 30.06 in 10.0 mi ESE 6.9 mph - N/A   Mostly Cloudy
5:53 PM 81.0 °F 82.7 °F 64.9 °F 58% 30.06 in 10.0 mi ESE 4.6 mph - N/A   Mostly Cloudy
6:53 PM 78.1 °F - 66.9 °F 68% 30.06 in 10.0 mi SSW 6.9 mph - N/A   Scattered Clouds
7:53 PM 77.0 °F - 66.0 °F 69% 30.06 in 9.0 mi South 4.6 mph - N/A   Clear
8:53 PM 73.9 °F - 66.0 °F 76% 30.07 in 9.0 mi Calm Calm - N/A   Clear
9:53 PM 72.0 °F - 64.9 °F 78% 30.08 in 7.0 mi Calm Calm - N/A   Clear
10:53 PM 71.1 °F - 66.0 °F 84% 30.09 in 10.0 mi Calm Calm - N/A   Clear
11:53 PM 70.0 °F - 66.9 °F 90% 30.09 in 10.0 mi South 3.5 mph - N/A   Clear